Time,TemperatureF,DewpointF,PressureIn,WindDirection,WindDirectionDegrees,WindSpeedMPH,WindSpeedGustMPH,Humidity,HourlyPrecipIn,Conditions,Clouds,dailyrainin,SoftwareType,DateUTC
2013-06-14 00:00:00,78.9,74.4,29.94,WNW,291,0.0,5.0,86,0.00,,,0.00,Wunderground v.1.15,2013-06-14 04:00:00,
2013-06-14 00:05:00,79.0,74.5,29.94,NNE,16,0.0,5.0,86,0.00,,,0.00,Wunderground v.1.15,2013-06-14 04:05:00,
2013-06-14 00:06:00,79.0,74.0,29.95,NNE,16,0.0,1.0,86,0.00,,,0.00,weatherlink.com 1.10,2013-06-14 04:06:00,
2013-06-14 00:10:00,78.9,74.4,29.95,NE,39,0.0,5.0,86,0.00,,,0.00,Wunderground v.1.15,2013-06-14 04:10:00,
2013-06-14 00:20:00,79.0,74.5,29.95,ESE,114,0.0,5.0,86,0.00,,,0.00,Wunderground v.1.15,2013-06-14 04:20:00,
2013-06-14 00:21:00,79.0,74.0,29.95,ESE,120,0.0,4.0,86,0.00,,,0.00,weatherlink.com 1.10,2013-06-14 04:21:00,
2013-06-14 00:30:00,79.0,74.1,29.95,WNW,292,0.0,5.0,85,0.00,,,0.00,Wunderground v.1.15,2013-06-14 04:30:00,
2013-06-14 00:40:00,79.0,74.1,29.95,SSE,155,0.0,5.0,85,0.00,,,0.00,Wunderground v.1.15,2013-06-14 04:40:00,
2013-06-14 00:50:00,78.9,74.0,29.95,SSW,203,0.0,2.0,85,0.00,,,0.00,weatherlink.com 1.10,2013-06-14 04:50:00,
2013-06-14 00:55:00,78.9,74.0,29.96,NNW,329,0.0,5.0,85,0.00,,,0.00,Wunderground v.1.15,2013-06-14 04:55:00,
2013-06-14 01:00:00,78.9,74.0,29.96,NNW,336,0.0,5.0,85,0.00,,,0.00,Wunderground v.1.15,2013-06-14 05:00:00,
2013-06-14 01:05:00,78.8,74.3,29.96,North,8,0.0,5.0,86,0.00,,,0.00,Wunderground v.1.15,2013-06-14 05:05:00,
2013-06-14 01:15:00,78.7,74.2,29.95,WNW,299,0.0,5.0,86,0.00,,,0.00,Wunderground v.1.15,2013-06-14 05:15:00,
2013-06-14 01:25:00,78.8,74.3,29.94,WNW,302,0.0,5.0,86,0.00,,,0.00,Wunderground v.1.15,2013-06-14 05:25:00,
2013-06-14 01:34:00,78.8,74.0,29.94,NW,308,0.0,1.0,85,0.00,,,0.00,weatherlink.com 1.10,2013-06-14 05:34:00,
2013-06-14 01:40:00,78.6,73.7,29.94,SSE,160,0.0,5.0,85,0.00,,,0.00,Wunderground v.1.15,2013-06-14 05:40:00,
2013-06-14 01:48:00,78.4,74.0,29.94,ESE,111,0.0,2.0,85,0.00,,,0.00,weatherlink.com 1.10,2013-06-14 05:48:00,
2013-06-14 01:55:00,78.3,73.4,29.93,WSW,250,0.0,5.0,85,0.00,,,0.00,Wunderground v.1.15,2013-06-14 05:55:00,
2013-06-14 02:00:00,78.1,73.2,29.93,WSW,250,0.0,2.0,85,0.00,,,0.00,Wunderground v.1.15,2013-06-14 06:00:00,
2013-06-14 02:10:00,77.9,73.4,29.92,West,268,0.0,2.0,86,0.00,,,0.00,Wunderground v.1.15,2013-06-14 06:10:00,
2013-06-14 02:15:00,77.8,73.3,29.92,West,268,0.0,2.0,86,0.00,,,0.00,Wunderground v.1.15,2013-06-14 06:15:00,
2013-06-14 02:20:00,77.8,73.6,29.92,SSE,153,0.0,2.0,87,0.00,,,0.00,Wunderground v.1.15,2013-06-14 06:20:00,
2013-06-14 02:25:00,77.8,73.6,29.92,SSE,155,0.0,2.0,87,0.00,,,0.00,Wunderground v.1.15,2013-06-14 06:25:00,
2013-06-14 02:35:00,77.5,73.0,29.91,WNW,292,0.0,1.0,87,0.00,,,0.00,weatherlink.com 1.10,2013-06-14 06:35:00,
2013-06-14 02:40:00,77.4,73.2,29.91,SE,129,0.0,2.0,87,0.00,,,0.00,Wunderground v.1.15,2013-06-14 06:40:00,
2013-06-14 02:45:00,77.6,73.4,29.91,NW,311,0.0,2.0,87,0.00,,,0.00,Wunderground v.1.15,2013-06-14 06:45:00,
2013-06-14 02:50:00,77.6,73.4,29.91,West,280,0.0,2.0,87,0.00,,,0.00,Wunderground v.1.15,2013-06-14 06:50:00,
2013-06-14 03:00:00,77.6,73.4,29.91,North,2,0.0,2.0,87,0.00,,,0.00,Wunderground v.1.15,2013-06-14 07:00:00,
2013-06-14 03:10:00,77.9,73.7,29.91,SSE,156,0.0,2.0,87,0.00,,,0.00,Wunderground v.1.15,2013-06-14 07:10:00,
2013-06-14 03:19:00,78.3,73.0,29.91,ENE,58,0.0,4.0,85,0.00,,,0.00,weatherlink.com 1.10,2013-06-14 07:19:00,
2013-06-14 03:25:00,78.3,73.4,29.91,North,3,0.0,2.0,85,0.00,,,0.00,Wunderground v.1.15,2013-06-14 07:25:00,
2013-06-14 03:30:00,78.3,73.4,29.90,ENE,58,0.0,2.0,85,0.00,,,0.00,Wunderground v.1.15,2013-06-14 07:30:00,
2013-06-14 03:35:00,78.3,73.4,29.90,NE,36,0.0,2.0,85,0.00,,,0.00,Wunderground v.1.15,2013-06-14 07:35:00,
2013-06-14 03:45:00,78.3,73.4,29.91,NW,309,0.0,2.0,85,0.00,,,0.00,Wunderground v.1.15,2013-06-14 07:45:00,
2013-06-14 03:55:00,78.4,73.9,29.90,WSW,255,0.0,2.0,86,0.00,,,0.00,Wunderground v.1.15,2013-06-14 07:55:00,
2013-06-14 04:01:00,78.4,73.9,29.91,ESE,117,0.0,4.0,86,0.00,,,0.00,Wunderground v.1.15,2013-06-14 08:01:00,
2013-06-14 04:10:00,78.5,73.6,29.90,North,356,0.0,4.0,85,0.00,,,0.00,Wunderground v.1.15,2013-06-14 08:10:00,
2013-06-14 04:18:00,78.6,74.0,29.91,NW,326,0.0,4.0,85,0.00,,,0.00,weatherlink.com 1.10,2013-06-14 08:18:00,
2013-06-14 04:25:00,78.5,73.6,29.91,NNE,27,0.0,4.0,85,0.00,,,0.00,Wunderground v.1.15,2013-06-14 08:25:00,
2013-06-14 04:33:00,78.6,74.0,29.91,SSE,158,1.0,3.0,85,0.00,,,0.00,weatherlink.com 1.10,2013-06-14 08:33:00,
2013-06-14 04:40:00,78.9,74.0,29.91,WNW,288,1.0,1.0,85,0.00,,,0.00,Wunderground v.1.15,2013-06-14 08:40:00,
2013-06-14 04:47:00,78.9,74.0,29.90,SSW,210,0.0,5.0,85,0.00,,,0.00,weatherlink.com 1.10,2013-06-14 08:47:00,
2013-06-14 04:55:00,78.9,74.0,29.90,East,82,0.0,4.0,85,0.00,,,0.00,Wunderground v.1.15,2013-06-14 08:55:00,
2013-06-14 05:02:00,78.9,74.0,29.90,NW,316,0.0,3.0,85,0.00,,,0.00,weatherlink.com 1.10,2013-06-14 09:02:00,
2013-06-14 05:10:00,78.8,73.9,29.90,North,349,0.0,4.0,85,0.00,,,0.00,Wunderground v.1.15,2013-06-14 09:10:00,
2013-06-14 05:17:00,79.0,74.0,29.90,East,101,1.0,3.0,84,0.00,,,0.00,weatherlink.com 1.10,2013-06-14 09:17:00,
2013-06-14 05:25:00,79.2,74.3,29.90,East,89,0.0,4.0,85,0.00,,,0.00,Wunderground v.1.15,2013-06-14 09:25:00,
2013-06-14 05:31:00,79.3,74.0,29.89,NE,41,0.0,6.0,84,0.00,,,0.00,weatherlink.com 1.10,2013-06-14 09:31:00,
2013-06-14 05:40:00,79.2,73.9,29.89,NNW,330,0.0,4.0,84,0.00,,,0.00,Wunderground v.1.15,2013-06-14 09:40:00,
2013-06-14 05:46:00,79.3,74.0,29.89,NW,325,0.0,3.0,85,0.00,,,0.00,weatherlink.com 1.10,2013-06-14 09:46:00,
2013-06-14 05:55:00,79.1,74.2,29.90,West,276,0.0,4.0,85,0.00,,,0.00,Wunderground v.1.15,2013-06-14 09:55:00,
2013-06-14 06:00:00,78.9,74.0,29.90,WSW,248,0.0,4.0,85,0.00,,,0.00,Wunderground v.1.15,2013-06-14 10:00:00,
2013-06-14 06:10:00,78.7,73.8,29.90,ESE,117,0.0,4.0,85,0.00,,,0.00,Wunderground v.1.15,2013-06-14 10:10:00,
2013-06-14 06:16:00,78.9,74.0,29.90,East,96,0.0,5.0,85,0.00,,,0.00,weatherlink.com 1.10,2013-06-14 10:16:00,
2013-06-14 06:25:00,78.9,74.0,29.90,NNW,341,0.0,4.0,85,0.00,,,0.00,Wunderground v.1.15,2013-06-14 10:25:00,
2013-06-14 06:30:00,78.8,74.0,29.90,WNW,299,1.0,2.0,85,0.00,,,0.00,weatherlink.com 1.10,2013-06-14 10:30:00,
2013-06-14 06:40:00,78.7,73.5,29.90,NNW,335,0.0,4.0,84,0.00,,,0.00,Wunderground v.1.15,2013-06-14 10:40:00,
2013-06-14 06:50:00,78.8,73.2,29.91,West,280,0.0,4.0,83,0.00,,,0.00,Wunderground v.1.15,2013-06-14 10:50:00,
2013-06-14 06:59:00,78.8,74.0,29.91,WNW,297,1.0,2.0,84,0.00,,,0.00,weatherlink.com 1.10,2013-06-14 10:59:00,
2013-06-14 07:05:00,78.8,73.2,29.91,ENE,67,0.0,4.0,83,0.00,,,0.00,Wunderground v.1.15,2013-06-14 11:05:00,
2013-06-14 07:14:00,79.2,73.0,29.91,WNW,293,0.0,7.0,82,0.00,,,0.00,weatherlink.com 1.10,2013-06-14 11:14:00,
2013-06-14 07:20:00,79.6,74.0,29.90,SE,131,0.0,4.0,83,0.00,,,0.00,Wunderground v.1.15,2013-06-14 11:20:00,
2013-06-14 07:29:00,79.8,74.0,29.91,SE,136,0.0,3.0,83,0.00,,,0.00,weatherlink.com 1.10,2013-06-14 11:29:00,
2013-06-14 07:35:00,79.9,74.3,29.90,WNW,299,0.0,4.0,83,0.00,,,0.00,Wunderground v.1.15,2013-06-14 11:35:00,
2013-06-14 07:44:00,80.3,74.0,29.91,NNE,27,1.0,5.0,82,0.00,,,0.00,weatherlink.com 1.10,2013-06-14 11:44:00,
2013-06-14 07:50:00,80.5,74.5,29.90,WNW,302,0.0,4.0,82,0.00,,,0.00,Wunderground v.1.15,2013-06-14 11:50:00,
2013-06-14 07:55:00,80.7,74.3,29.90,WNW,297,1.0,4.0,81,0.00,,,0.00,Wunderground v.1.15,2013-06-14 11:55:00,
2013-06-14 08:00:00,81.1,75.1,29.91,WNW,289,1.0,1.0,82,0.00,,,0.00,Wunderground v.1.15,2013-06-14 12:00:00,
2013-06-14 08:10:00,82.3,75.5,29.91,East,98,0.0,6.0,80,0.00,,,0.00,Wunderground v.1.15,2013-06-14 12:10:00,
2013-06-14 08:20:00,83.0,75.4,29.91,North,3,1.0,6.0,78,0.00,,,0.00,Wunderground v.1.15,2013-06-14 12:20:00,
2013-06-14 08:28:00,82.8,75.0,29.91,ENE,72,0.0,5.0,78,0.00,,,0.00,weatherlink.com 1.10,2013-06-14 12:28:00,
2013-06-14 08:35:00,83.0,75.4,29.91,West,269,0.0,6.0,78,0.00,,,0.00,Wunderground v.1.15,2013-06-14 12:35:00,
2013-06-14 08:43:00,83.1,76.0,29.91,East,89,0.0,4.0,79,0.00,,,0.00,weatherlink.com 1.10,2013-06-14 12:43:00,
2013-06-14 08:50:00,84.2,76.2,29.92,East,98,0.0,6.0,77,0.00,,,0.00,Wunderground v.1.15,2013-06-14 12:50:00,
2013-06-14 08:57:00,84.5,76.0,29.92,NW,321,2.0,8.0,76,0.00,,,0.00,weatherlink.com 1.10,2013-06-14 12:57:00,
2013-06-14 09:05:00,85.1,75.9,29.92,ENE,60,1.0,2.0,74,0.00,,,0.00,Wunderground v.1.15,2013-06-14 13:05:00,
2013-06-14 09:10:00,85.7,76.5,29.92,NE,52,1.0,6.0,74,0.00,,,0.00,Wunderground v.1.15,2013-06-14 13:10:00,
2013-06-14 09:20:00,85.8,75.3,29.93,ESE,112,1.0,6.0,71,0.00,,,0.00,Wunderground v.1.15,2013-06-14 13:20:00,
2013-06-14 09:27:00,85.8,76.0,29.93,North,3,1.0,7.0,73,0.00,,,0.00,weatherlink.com 1.10,2013-06-14 13:27:00,
2013-06-14 09:35:00,86.2,76.1,29.92,East,83,1.0,6.0,72,0.00,,,0.00,Wunderground v.1.15,2013-06-14 13:35:00,
2013-06-14 09:41:00,85.5,75.0,29.93,NNW,335,0.0,5.0,72,0.00,,,0.00,weatherlink.com 1.10,2013-06-14 13:41:00,
2013-06-14 09:50:00,85.8,76.1,29.93,ENE,64,2.0,6.0,73,0.00,,,0.00,Wunderground v.1.15,2013-06-14 13:50:00,
2013-06-14 09:56:00,86.5,77.0,29.93,ENE,65,1.0,5.0,73,0.00,,,0.00,weatherlink.com 1.10,2013-06-14 13:56:00,
2013-06-14 10:05:00,87.3,76.7,29.93,East,99,1.0,5.0,71,0.00,,,0.00,Wunderground v.1.15,2013-06-14 14:05:00,
2013-06-14 10:11:00,87.3,76.0,29.93,West,264,5.0,6.0,69,0.00,,,0.00,weatherlink.com 1.10,2013-06-14 14:11:00,
2013-06-14 10:20:00,87.0,76.5,29.93,ENE,63,2.0,2.0,71,0.00,,,0.00,Wunderground v.1.15,2013-06-14 14:20:00,
2013-06-14 10:25:00,87.2,77.0,29.93,SSE,158,0.0,9.0,71,0.00,,,0.00,weatherlink.com 1.10,2013-06-14 14:25:00,
2013-06-14 10:35:00,87.9,76.5,29.93,ENE,68,1.0,7.0,69,0.00,,,0.00,Wunderground v.1.15,2013-06-14 14:35:00,
2013-06-14 10:40:00,88.1,76.2,29.93,SE,139,1.0,7.0,68,0.00,,,0.00,Wunderground v.1.15,2013-06-14 14:40:00,
2013-06-14 10:50:00,88.1,76.6,29.94,NE,46,2.0,2.0,69,0.00,,,0.00,Wunderground v.1.15,2013-06-14 14:50:00,
2013-06-14 10:56:00,88.0,77.0,29.94,ENE,61,3.0,4.0,70,0.00,,,0.00,weatherlink.com 1.10,2013-06-14 14:56:00,
2013-06-14 11:05:00,88.3,76.8,29.95,East,97,1.0,7.0,69,0.00,,,0.00,Wunderground v.1.15,2013-06-14 15:05:00,
2013-06-14 11:10:00,88.6,78.0,29.96,SE,138,1.0,7.0,70,0.00,,,0.00,weatherlink.com 1.10,2013-06-14 15:10:00,
2013-06-14 11:20:00,88.7,75.9,29.96,North,352,1.0,1.0,66,0.00,,,0.00,Wunderground v.1.15,2013-06-14 15:20:00,
2013-06-14 11:25:00,88.7,77.0,29.95,SE,141,3.0,5.0,68,0.00,,,0.00,weatherlink.com 1.10,2013-06-14 15:25:00,
2013-06-14 11:30:00,88.8,77.3,29.95,East,80,1.0,7.0,69,0.00,,,0.00,Wunderground v.1.15,2013-06-14 15:30:00,
2013-06-14 11:40:00,89.2,77.0,29.95,East,90,0.0,4.0,68,0.00,,,0.00,weatherlink.com 1.10,2013-06-14 15:40:00,
2013-06-14 11:45:00,88.4,77.4,29.95,SSE,152,1.0,7.0,70,0.00,,,0.00,Wunderground v.1.15,2013-06-14 15:45:00,
2013-06-14 11:50:00,88.4,77.4,29.95,ENE,69,1.0,1.0,70,0.00,,,0.00,Wunderground v.1.15,2013-06-14 15:50:00,
2013-06-14 12:01:00,89.3,78.2,29.96,ENE,63,0.0,8.0,70,0.00,,,0.00,Wunderground v.1.15,2013-06-14 16:01:00,
2013-06-14 12:10:00,88.6,76.2,29.95,East,94,2.0,8.0,67,0.00,,,0.00,Wunderground v.1.15,2013-06-14 16:10:00,
2013-06-14 12:15:00,88.2,76.7,29.95,ESE,118,2.0,8.0,69,0.00,,,0.00,Wunderground v.1.15,2013-06-14 16:15:00,
2013-06-14 12:20:00,87.5,76.9,29.95,SE,132,1.0,8.0,71,0.00,,,0.00,Wunderground v.1.15,2013-06-14 16:20:00,
2013-06-14 12:25:00,86.8,76.7,29.94,ENE,58,1.0,8.0,72,0.00,,,0.00,Wunderground v.1.15,2013-06-14 16:25:00,
2013-06-14 12:35:00,86.8,76.7,29.94,NE,52,0.0,8.0,72,0.00,,,0.00,Wunderground v.1.15,2013-06-14 16:35:00,
2013-06-14 12:40:00,86.8,75.0,29.95,SSE,149,0.0,5.0,69,0.00,,,0.00,weatherlink.com 1.10,2013-06-14 16:40:00,
2013-06-14 12:45:00,87.3,76.3,29.95,South,170,1.0,2.0,70,0.00,,,0.00,Wunderground v.1.15,2013-06-14 16:45:00,
2013-06-14 12:50:00,87.4,76.0,29.95,SSE,157,1.0,8.0,69,0.00,,,0.00,Wunderground v.1.15,2013-06-14 16:50:00,
2013-06-14 13:00:00,87.3,76.7,29.94,ENE,63,1.0,1.0,71,0.00,,,0.00,Wunderground v.1.15,2013-06-14 17:00:00,
2013-06-14 13:09:00,86.7,76.0,29.94,NNE,28,1.0,3.0,70,0.00,,,0.00,weatherlink.com 1.10,2013-06-14 17:09:00,
2013-06-14 13:15:00,86.4,75.9,29.94,WNW,296,1.0,8.0,71,0.00,,,0.00,Wunderground v.1.15,2013-06-14 17:15:00,
2013-06-14 13:24:00,86.3,76.0,29.94,ENE,77,1.0,3.0,72,0.00,,,0.00,weatherlink.com 1.10,2013-06-14 17:24:00,
2013-06-14 13:30:00,86.0,75.9,29.94,SE,138,1.0,1.0,72,0.00,,,0.00,Wunderground v.1.15,2013-06-14 17:30:00,
2013-06-14 13:39:00,86.3,77.0,29.93,East,82,0.0,2.0,73,0.00,,,0.00,weatherlink.com 1.10,2013-06-14 17:39:00,
2013-06-14 13:45:00,86.7,77.0,29.94,NE,43,0.0,8.0,73,0.00,,,0.00,Wunderground v.1.15,2013-06-14 17:45:00,
2013-06-14 13:53:00,87.3,77.0,29.93,ESE,108,0.0,3.0,72,0.00,,,0.00,weatherlink.com 1.10,2013-06-14 17:53:00,
2013-06-14 14:00:00,87.0,76.9,29.92,NE,53,1.0,9.0,72,0.00,,,0.00,Wunderground v.1.15,2013-06-14 18:00:00,
2013-06-14 14:08:00,87.5,77.0,29.91,ESE,114,0.0,3.0,72,0.00,,,0.00,weatherlink.com 1.10,2013-06-14 18:08:00,
2013-06-14 14:15:00,87.3,76.7,29.91,ESE,116,1.0,9.0,71,0.00,,,0.00,Wunderground v.1.15,2013-06-14 18:15:00,
2013-06-14 14:23:00,87.5,77.0,29.90,ESE,106,0.0,3.0,70,0.00,,,0.00,weatherlink.com 1.10,2013-06-14 18:23:00,
2013-06-14 14:30:00,88.2,78.9,29.90,ENE,60,1.0,1.0,74,0.00,,,0.00,Wunderground v.1.15,2013-06-14 18:30:00,
2013-06-14 14:38:00,88.0,76.0,29.90,ENE,58,0.0,8.0,68,0.00,,,0.00,weatherlink.com 1.10,2013-06-14 18:38:00,
2013-06-14 14:45:00,88.2,76.7,29.90,SSE,159,1.0,9.0,69,0.00,,,0.00,Wunderground v.1.15,2013-06-14 18:45:00,
2013-06-14 14:52:00,88.2,77.0,29.89,West,280,0.0,5.0,70,0.00,,,0.00,weatherlink.com 1.10,2013-06-14 18:52:00,
2013-06-14 15:00:00,88.8,79.0,29.89,South,169,1.0,1.0,73,0.00,,,0.00,Wunderground v.1.15,2013-06-14 19:00:00,
2013-06-14 15:07:00,89.3,78.0,29.89,NNE,23,3.0,5.0,70,0.00,,,0.00,weatherlink.com 1.10,2013-06-14 19:07:00,
2013-06-14 15:15:00,88.9,77.4,29.89,NE,36,2.0,9.0,69,0.00,,,0.00,Wunderground v.1.15,2013-06-14 19:15:00,
2013-06-14 15:22:00,89.1,78.0,29.91,East,82,2.0,5.0,69,0.00,,,0.00,weatherlink.com 1.10,2013-06-14 19:22:00,
2013-06-14 15:30:00,89.4,76.5,29.91,NNW,348,1.0,1.0,66,0.00,,,0.00,Wunderground v.1.15,2013-06-14 19:30:00,
2013-06-14 15:37:00,90.2,78.0,29.91,West,276,1.0,4.0,67,0.00,,,0.00,weatherlink.com 1.10,2013-06-14 19:37:00,
2013-06-14 15:45:00,89.1,77.6,29.91,SE,140,1.0,9.0,69,0.00,,,0.00,Wunderground v.1.15,2013-06-14 19:45:00,
2013-06-14 15:50:00,89.5,77.5,29.91,NW,309,1.0,9.0,68,0.00,,,0.00,Wunderground v.1.15,2013-06-14 19:50:00,
2013-06-14 16:00:00,90.1,77.7,29.91,NE,52,1.0,1.0,67,0.00,,,0.00,Wunderground v.1.15,2013-06-14 20:00:00,
2013-06-14 16:06:00,90.0,78.0,29.91,NW,310,0.0,6.0,67,0.00,,,0.00,weatherlink.com 1.10,2013-06-14 20:06:00,
2013-06-14 16:15:00,89.9,77.9,29.91,East,101,1.0,7.0,68,0.00,,,0.00,Wunderground v.1.15,2013-06-14 20:15:00,
2013-06-14 16:21:00,90.0,78.0,29.90,ENE,64,0.0,3.0,67,0.00,,,0.00,weatherlink.com 1.10,2013-06-14 20:21:00,
2013-06-14 16:30:00,89.0,77.5,29.90,NE,49,1.0,7.0,69,0.00,,,0.00,Wunderground v.1.15,2013-06-14 20:30:00,
2013-06-14 16:35:00,88.4,76.9,29.90,SSE,162,1.0,7.0,69,0.00,,,0.00,Wunderground v.1.15,2013-06-14 20:35:00,
2013-06-14 16:45:00,88.2,76.3,29.89,West,279,1.0,7.0,68,0.00,,,0.00,Wunderground v.1.15,2013-06-14 20:45:00,
2013-06-14 16:50:00,87.9,77.0,29.89,West,275,0.0,5.0,70,0.00,,,0.00,weatherlink.com 1.10,2013-06-14 20:50:00,
2013-06-14 17:00:00,87.2,75.8,29.89,ESE,115,0.0,7.0,69,0.00,,,0.00,Wunderground v.1.15,2013-06-14 21:00:00,
2013-06-14 17:10:00,86.7,75.3,29.88,ESE,116,1.0,7.0,69,0.00,,,0.00,Wunderground v.1.15,2013-06-14 21:10:00,
2013-06-14 17:15:00,86.5,76.0,29.89,ENE,58,1.0,7.0,71,0.00,,,0.00,Wunderground v.1.15,2013-06-14 21:15:00,
2013-06-14 17:25:00,86.3,76.2,29.89,East,80,0.0,7.0,72,0.00,,,0.00,Wunderground v.1.15,2013-06-14 21:25:00,
2013-06-14 17:34:00,85.9,76.0,29.89,SE,140,0.0,5.0,73,0.00,,,0.00,weatherlink.com 1.10,2013-06-14 21:34:00,
2013-06-14 17:40:00,86.0,76.3,29.89,SE,134,0.0,7.0,73,0.00,,,0.00,Wunderground v.1.15,2013-06-14 21:40:00,
2013-06-14 17:45:00,85.4,76.2,29.89,NW,306,1.0,7.0,74,0.00,,,0.00,Wunderground v.1.15,2013-06-14 21:45:00,
2013-06-14 17:55:00,85.0,76.2,29.89,South,180,1.0,4.0,75,0.00,,,0.00,Wunderground v.1.15,2013-06-14 21:55:00,
2013-06-14 18:00:00,84.6,76.2,29.89,ENE,73,2.0,8.0,76,0.00,,,0.00,Wunderground v.1.15,2013-06-14 22:00:00,
2013-06-14 18:10:00,84.5,76.5,29.89,ENE,59,0.0,8.0,77,0.00,,,0.00,Wunderground v.1.15,2013-06-14 22:10:00,
2013-06-14 18:18:00,84.4,76.0,29.88,NW,315,1.0,3.0,77,0.00,,,0.00,weatherlink.com 1.10,2013-06-14 22:18:00,
2013-06-14 18:25:00,84.2,76.6,29.89,East,87,1.0,8.0,78,0.00,,,0.00,Wunderground v.1.15,2013-06-14 22:25:00,
2013-06-14 18:33:00,84.1,76.0,29.89,ESE,120,1.0,3.0,78,0.00,,,0.00,weatherlink.com 1.10,2013-06-14 22:33:00,
2013-06-14 18:40:00,84.0,76.4,29.90,SE,133,1.0,8.0,78,0.00,,,0.00,Wunderground v.1.15,2013-06-14 22:40:00,
2013-06-14 18:48:00,84.1,76.0,29.90,ESE,111,0.0,2.0,78,0.00,,,0.00,weatherlink.com 1.10,2013-06-14 22:48:00,
2013-06-14 18:55:00,83.8,76.2,29.89,South,185,0.0,8.0,78,0.00,,,0.00,Wunderground v.1.15,2013-06-14 22:55:00,
2013-06-14 19:02:00,83.4,76.0,29.89,NW,304,0.0,4.0,79,0.00,,,0.00,weatherlink.com 1.10,2013-06-14 23:02:00,
2013-06-14 19:10:00,83.2,76.4,29.91,West,263,0.0,8.0,80,0.00,,,0.00,Wunderground v.1.15,2013-06-14 23:10:00,
2013-06-14 19:17:00,83.3,76.0,29.91,West,277,0.0,3.0,80,0.00,,,0.00,weatherlink.com 1.10,2013-06-14 23:17:00,
2013-06-14 19:25:00,83.3,76.5,29.91,East,91,0.0,8.0,80,0.00,,,0.00,Wunderground v.1.15,2013-06-14 23:25:00,
2013-06-14 19:32:00,83.0,76.0,29.90,ESE,122,0.0,5.0,80,0.00,,,0.00,weatherlink.com 1.10,2013-06-14 23:32:00,
2013-06-14 19:40:00,82.8,76.4,29.90,NNW,341,0.0,8.0,81,0.00,,,0.00,Wunderground v.1.15,2013-06-14 23:40:00,
2013-06-14 19:46:00,82.5,76.0,29.90,ESE,103,0.0,4.0,82,0.00,,,0.00,weatherlink.com 1.10,2013-06-14 23:46:00,
2013-06-14 19:55:00,82.3,76.3,29.90,NNW,335,0.0,8.0,82,0.00,,,0.00,Wunderground v.1.15,2013-06-14 23:55:00,
2013-06-14 20:01:00,82.1,76.1,29.90,South,173,0.0,8.0,82,0.00,,,0.00,Wunderground v.1.15,2013-06-15 00:01:00,
2013-06-14 20:10:00,81.9,75.9,29.91,SW,231,0.0,8.0,82,0.00,,,0.00,Wunderground v.1.15,2013-06-15 00:10:00,
2013-06-14 20:16:00,81.9,76.0,29.91,WSW,240,0.0,2.0,82,0.00,,,0.00,weatherlink.com 1.10,2013-06-15 00:16:00,
2013-06-14 20:25:00,81.7,76.0,29.91,North,359,0.0,8.0,83,0.00,,,0.00,Wunderground v.1.15,2013-06-15 00:25:00,
2013-06-14 20:31:00,81.5,76.0,29.91,North,352,0.0,2.0,83,0.00,,,0.00,weatherlink.com 1.10,2013-06-15 00:31:00,
2013-06-14 20:40:00,81.2,75.5,29.91,WNW,295,0.0,8.0,83,0.00,,,0.00,Wunderground v.1.15,2013-06-15 00:40:00,
2013-06-14 20:46:00,81.0,75.0,29.92,WNW,290,0.0,1.0,83,0.00,,,0.00,weatherlink.com 1.10,2013-06-15 00:46:00,
2013-06-14 20:55:00,80.9,74.9,29.91,SE,131,0.0,8.0,82,0.00,,,0.00,Wunderground v.1.15,2013-06-15 00:55:00,
2013-06-14 21:01:00,80.9,75.0,29.91,SSW,200,0.0,3.0,82,0.00,,,0.00,weatherlink.com 1.10,2013-06-15 01:01:00,
2013-06-14 21:10:00,80.6,75.0,29.91,NW,324,0.0,8.0,83,0.00,,,0.00,Wunderground v.1.15,2013-06-15 01:10:00,
2013-06-14 21:15:00,80.5,75.0,29.91,WSW,238,0.0,1.0,83,0.00,,,0.00,weatherlink.com 1.10,2013-06-15 01:15:00,
2013-06-14 21:25:00,80.5,75.2,29.92,WNW,282,0.0,8.0,84,0.00,,,0.00,Wunderground v.1.15,2013-06-15 01:25:00,
2013-06-14 21:35:00,80.6,75.3,29.92,SE,137,0.0,8.0,84,0.00,,,0.00,Wunderground v.1.15,2013-06-15 01:35:00,
2013-06-14 21:40:00,80.5,75.2,29.92,SSE,160,0.0,8.0,84,0.00,,,0.00,Wunderground v.1.15,2013-06-15 01:40:00,
2013-06-14 21:45:00,80.4,75.5,29.92,SE,131,0.0,8.0,85,0.00,,,0.00,Wunderground v.1.15,2013-06-15 01:45:00,
2013-06-14 21:50:00,80.3,75.4,29.92,WNW,296,0.0,8.0,85,0.00,,,0.00,Wunderground v.1.15,2013-06-15 01:50:00,
2013-06-14 21:59:00,80.3,75.0,29.93,ENE,57,0.0,1.0,85,0.00,,,0.00,weatherlink.com 1.10,2013-06-15 01:59:00,
2013-06-14 22:05:00,80.3,75.4,29.93,North,352,0.0,5.0,85,0.00,,,0.00,Wunderground v.1.15,2013-06-15 02:05:00,
2013-06-14 22:14:00,80.3,75.0,29.94,North,360,0.0,1.0,85,0.00,,,0.00,weatherlink.com 1.10,2013-06-15 02:14:00,
2013-06-14 22:20:00,80.1,75.5,29.93,West,281,0.0,5.0,86,0.00,,,0.00,Wunderground v.1.15,2013-06-15 02:20:00,
2013-06-14 22:29:00,80.2,75.0,29.93,NW,310,0.0,2.0,85,0.00,,,0.00,weatherlink.com 1.10,2013-06-15 02:29:00,
2013-06-14 22:35:00,80.2,75.3,29.93,North,6,0.0,5.0,85,0.00,,,0.00,Wunderground v.1.15,2013-06-15 02:35:00,
2013-06-14 22:40:00,80.2,75.3,29.93,ESE,115,0.0,5.0,85,0.00,,,0.00,Wunderground v.1.15,2013-06-15 02:40:00,
2013-06-14 22:50:00,80.0,75.1,29.93,SW,217,0.0,5.0,85,0.00,,,0.00,Wunderground v.1.15,2013-06-15 02:50:00,
2013-06-14 22:58:00,80.1,75.0,29.93,WSW,243,0.0,2.0,85,0.00,,,0.00,weatherlink.com 1.10,2013-06-15 02:58:00,
2013-06-14 23:05:00,80.3,75.4,29.92,WNW,290,0.0,5.0,85,0.00,,,0.00,Wunderground v.1.15,2013-06-15 03:05:00,
2013-06-14 23:13:00,80.4,75.0,29.93,East,85,0.0,2.0,85,0.00,,,0.00,weatherlink.com 1.10,2013-06-15 03:13:00,
2013-06-14 23:20:00,80.4,75.8,29.92,NNE,24,0.0,5.0,86,0.00,,,0.00,Wunderground v.1.15,2013-06-15 03:20:00,
2013-06-14 23:25:00,80.4,75.8,29.93,SSE,158,0.0,5.0,86,0.00,,,0.00,Wunderground v.1.15,2013-06-15 03:25:00,
2013-06-14 23:35:00,80.4,75.8,29.93,SE,133,0.0,5.0,86,0.00,,,0.00,Wunderground v.1.15,2013-06-15 03:35:00,
2013-06-14 23:42:00,80.4,76.0,29.94,North,1,0.0,2.0,86,0.00,,,0.00,weatherlink.com 1.10,2013-06-15 03:42:00,
2013-06-14 23:50:00,80.4,75.8,29.94,ESE,109,0.0,5.0,86,0.00,,,0.00,Wunderground v.1.15,2013-06-15 03:50:00,
2013-06-14 23:57:00,80.5,76.0,29.94,NNW,337,1.0,2.0,86,0.00,,,0.00,weatherlink.com 1.10,2013-06-15 03:57:00,